Location: Bonny Doon Airfield
(37.0704°N, 122.1252°W)
Time: 06:52:55
(UTC-07:00)

Hubble Space Telescope - Pass Details

Date: 11 October 2017
Orbit: 537 x 541 km, 28.5° (Epoch: 22 October)

Event Time Altitude Azimuth Distance (km) Brightness Sun altitude
Exits shadow 05:09:39 11° 162° (SSE) 1,699 3.4 -25.3°
Drops below altitude 10° 05:10:01 10° 157° (SSE) 1,784 3.5 -25.2°
Sets 05:12:59 0° 135° (SE) 2,674 4.8 -24.6°
